Other Public Products
Issued by NWS Grand Forks, ND

Home | Current Version | Previous Version | Text Only | Print | Product List | Glossary On
Versions: 1 2 3 4 5 6 7 8 9 10 11 12 13 14 15 16 17 18 19 20 21 22 23 24 25 26 27 28 29 30 31 32 33 34 35 36 37 38 39 40 41 42 43 44 45 46 47 48 49 50
000
FPUS83 KFGF 250110
OPUFGF
PRAIRIE TO PINES WEATHER ROUNDUP
NATIONAL WEATHER SERVICE EASTERN NORTH DAKOTA/GRAND FORKS ND
700 PM CST WED DEC 24 2014

 **SATELLITE DATA USED TO AUGMENT SKY COVER AT AUTOMATED STATIONS**
 *****  WEATHER ACROSS EASTERN NORTH DAKOTA  *****

CITY           SKY/WX    TMP DP  RH WIND       PRES   REMARKS
GRAND FORKS    FLURRIES  28  26  92 S16       29.46F WCI  16
GRAND FORKS AF CLOUDY    28  28 100 SW13      29.45F WCI  18
GRAND CITY NWS   N/A     27 N/A N/A S12         N/A  WCI  16
BUXTON         NOT AVBL
DEVILS LAKE    PTCLDY    27  23  86 SW8       29.40F WCI  18
FARGO          CLOUDY    29  25  85 S14       29.52F WCI  18
WAHPETON ARPT  CLOUDY    28  27  93 S9        29.56S WCI  20
$$

 *****  WEATHER ACROSS CENTRAL AND WESTERN NORTH DAKOTA  *****

CITY           SKY/WX    TMP DP  RH WIND       PRES   REMARKS
JAMESTOWN      CLOUDY    30  25  81 SW9       29.44F WCI  22
BISMARCK       CLOUDY    30  28  92 CALM      29.46F
MINOT          PTCLDY    30  25  81 W13       29.42F WCI  20
MINOT AFB      CLEAR     27  27  99 W12       29.42S WCI  17
GARRISON         N/A     31  28  89 NW13      29.43F WCI  21
WILLISTON      PTCLDY    27  22  81 CALM      29.49R
DICKINSON      CLOUDY    35  31  85 NW6       29.44S
HETTINGER      CLOUDY    34  28  79 NW6       29.46F
$$

 *****  OTHER OBSERVATIONS NORTHEAST NORTH DAKOTA  *****

CITY           SKY/WX    TMP DP  RH WIND       PRES   REMARKS
WALHALLA         N/A     28  28 100 S8        29.41F WCI  20
LANGDON        CLOUDY    28  27  93 SW14      29.38F WCI  17
CAVALIER       CLOUDY    28  27  93 S12       29.43F FOG     WCI  18
GRAFTON        NOT AVBL
CANDO          FAIR      21  19  93 SW5       29.40S WCI  15
FORT TOTTEN    NOT AVBL
ROLLA          FAIR      25  25 100 W8        29.38S WCI  16
RUGBY          FAIR      25  25 100 W10       29.41S WCI  15
 ***** THE ABOVE OBSERVATIONS ARE NON NWS ARE NOT QUALITY
        CONTROLLED AND MAY MIS-REPORT RAIN FOR SNOW...
$$

 *****  OTHER OBSERVATIONS SOUTHEAST NORTH DAKOTA *****

CITY           SKY/WX    TMP DP  RH WIND       PRES   REMARKS
COOPERSTOWN    NOT AVBL
VALLEY CITY    CLOUDY    28  28 100 SW16G23   29.46F WCI  17
OAKES            N/A     27  27 100 S17       29.50F WCI  14
GWINNER        CLOUDY    30  30 100 SW3G17    29.51F
BUFFALO        NOT AVBL
WYNDMERE         N/A     28  27  93 S7          N/A  WCI  21
 ***** THE ABOVE OBSERVATIONS ARE NON NWS ARE NOT QUALITY
       CONTROLLED AND MAY MIS-REPORT RAIN FOR SNOW...
$$

  *****  WEATHER ACROSS NORTHERN MINNESOTA  *****

CITY           SKY/WX    TMP DP  RH WIND       PRES   REMARKS
FLAG ISLAND    CLOUDY    28  27  93 S8        29.45F WCI  20
WARROAD        CLOUDY    28  25  86 S6        29.47F WCI  22
ROSEAU         CLOUDY    28  25  86 S9        29.46F WCI  20
HALLOCK        LGT SNOW  28  27  93 S16       29.46S WCI  17
THF RVR FALLS  CLOUDY    27  25  93 S15       29.47F WCI  15
HALSTAD          N/A     28  27  94 S14         N/A  WCI  17
FOSSTON        CLOUDY    25  25 100 S14       29.50F WCI  13
BAUDETTE       CLOUDY    30  26  85 S8        29.47F WCI  22
WASKISH        CLOUDY    30  30 100 CALM      29.49F
CROOKSTON      CLOUDY    27  27 100 S17       29.50F FOG     WCI  14
$$
  *****  WEATHER ACROSS CENTRAL AND WEST MINNESOTA  *****

CITY           SKY/WX    TMP DP  RH WIND       PRES   REMARKS
BEMIDJI        CLOUDY    30  27  90 S5        29.49F WCI  25
PARK RAPIDS    CLOUDY    29  27  92 SW9       29.52F WCI  20
WADENA         CLOUDY    27  27 100 SW6       29.54F WCI  20
DETROIT LAKES  CLOUDY    28  28 100 S9        29.52F WCI  20
MOORHEAD       CLOUDY    28  28 100 S13       29.54F WCI  18
FERGUS FALLS   CLOUDY    27  27 100 S13       29.57F WCI  16
ELBOW LAKE     CLOUDY    27  26  96 S10       29.56F WCI  17
MORRIS MN      MOCLDY    28  27  93 S9        29.57F WCI  20
STAPLES        CLOUDY    28  27  93 SW7       29.55F WCI  21
WHEATON        CLOUDY    27  25  93 S8        29.58F WCI  18
$$
  *****  WEATHER ELSEWHERE ACROSS MINNESOTA  *****

CITY           SKY/WX    TMP DP  RH WIND       PRES   REMARKS
DULUTH         CLOUDY    31  28  89 W5        29.51F
INTRNTL FALLS  LGT SNOW  32  30  92 CALM      29.49F FOG
ELY            CLOUDY    30  28  93 CALM      29.51S
CLOQUET        CLOUDY    32  30  93 SW3       29.53F
BRAINERD       CLOUDY    31  29  92 S7        29.55F WCI  24
HIBBING        LGT SNOW  33  30  88 SW3       29.52F FOG
ALEXANDRIA     CLOUDY    28  26  92 SW12      29.57F WCI  18
SAINT CLOUD    CLOUDY    34  28  79 W8        29.59S
MINNEAPOLIS    CLOUDY    34  29  82 W8        29.61F
$$

  *****  WEATHER ACROSS SOUTH DAKOTA  *****

CITY           SKY/WX    TMP DP  RH WIND       PRES   REMARKS
SIOUX FALLS    CLOUDY    26  25  96 SW9       29.64F FOG     WCI  17
BROOKINGS      NOT AVBL
WATERTOWN      CLOUDY    25  23  92 S9        29.55F WCI  15
HURON          PTCLDY    26  24  92 S10       29.58F WCI  16
SISSETON       NOT AVBL
ABERDEEN       CLOUDY    28  25  88 S15       29.54F WCI  16
MITCHELL       MOCLDY    27  25  92 S9        29.61F WCI  18
PIERRE         MOCLDY    24  19  81 SE7       29.50F WCI  16
MOBRIDGE       MOCLDY    26  21  81 SE7       29.46F WCI  18
RAPID CITY     CLOUDY    33  25  72 CALM      29.45F
$$

  *****  SOME WEATHER IN NEARBY STATES *****

CITY           SKY/WX    TMP DP  RH WIND       PRES   REMARKS
GLASGOW MT     MOCLDY    33  27  78 N7        29.51S
GREAT FALLS MT SNOW      31  31 100 N12       29.51R VSB 1/2 WCI  22
CHEYENNE WY    CLOUDY    40  16  37 W16       29.55F
SCOTTSBLUFF NE MOCLDY    41  27  57 W13       29.54F
OMAHA NE       CLOUDY    31  26  82 S8        29.77F WCI  23
DES MOINES IA  CLOUDY    33  29  85 W10       29.75R WCI  25
DAVENPORT IA   CLOUDY    36  31  82 W15       29.65R
CHICAGO IL     CLOUDY    37  33  85 W12       29.53R
EAU CLAIRE WI  CLOUDY    34  29  82 W3        29.58S
LA CROSSE WI   CLOUDY    37  30  75 NW8       29.60S
$$

  *****  SOME NATIONAL WEATHER *****

CITY           SKY/WX    TMP DP  RH WIND       PRES   REMARKS
LA GUARDIA NY  FOG       55  54  96 S12       29.59F VSB 1/2
RALEIGH NC     CLOUDY    64  60  87 SW10      29.70R
ATLANTA GA     CLOUDY    50  42  74 W13       29.81R
NEW ORLEANS LA MOCLDY    49  33  54 NW16      30.06R
OKLAHOMA CITY  CLEAR     35  26  69 S5        29.94R
ALBUQUERQUE NM PTCLDY    37  10  32 S6        29.99F
SALT LAKE CITY CLOUDY    43  23  45 S8        29.61F
LOS ANGELES CA CLOUDY    64  47  53 W10       29.91F
BOISE ID       LGT SNOW  33  32  96 NW21      29.48R VSB 1   WCI  21
SEATTLE WA     MOCLDY    44  37  76 CALM      29.96R
$$

*** WEATHER ACROSS MANITOBA...SASKATCHEWAN AND ONTARIO ***
                ***ONTARIO***

CITY           SKY/WX    TMP DP  RH WIND       PRES   REMARKS
GERALDTON      LGT SNOW  25  25 100 NE6       29.48  WCI  18
THUNDER BAY    CLOUDY    32  28  86 E2        29.52F
SIOUX LOOKOUT  NOT AVBL
TORONTO        MOCLDY    50  46  87 E8        29.23F
BIG TROUT LK   CLOUDY    23  23 100 E3        29.58F
PICKLE LAKE    FLURRIES  25  23  93 E6        29.51F WCI  18
DRYDEN         LGT SNOW  30  30 100 SE5       29.47F
KENORA         LGT SNOW  28  28 100 S9        29.45F WCI  20
$$
                *** MANITOBA***

CITY           SKY/WX    TMP DP  RH WIND       PRES   REMARKS
BRANDON        CLOUDY    28  25  86 W9        29.39R WCI  20
DAUPHIN        CLOUDY    27  23  86 W10       29.36F WCI  17
ISLAND LAKE    CLOUDY    25  23  93 E2        29.50
PILOT MOUND      N/A     21  19  93 SW8         N/A  WCI  12
THE PAS        FLURRIES  21  19  93 NE3       29.46S
THOMPSON       FLURRIES  19  18  93 NE3       29.54F
WINNIPEG       FLURRIES  27  23  86 S20       29.42F WCI  13
CHURCHILL      CLOUDY    14  14 100 E6        29.66S WCI   5
$$
                ***SASKATCHEWAN***

CITY           SKY/WX    TMP DP  RH WIND       PRES   REMARKS
ESTEVAN        PTCLDY    23  21  93 W13       29.44S WCI  11
KINDERSLEY     CLOUDY    27  23  86 NW16G23   29.55R WCI  14
LLOYDMINSTER   FLURRIES  23  19  86 N20G26    29.59R WCI   8
PRINCE ALBERT  LGT SNOW  23  21  93 NW8       29.49R FOG     WCI  14
REGINA         CLOUDY    25  23  93 NW13      29.45R WCI  13
YORKTON          N/A     25  23  93 W14       29.40R WCI  13
N. BATTLEFORD  FLURRIES  25  23  93 NW14      29.57R WCI  13
LA RONGE       NOT AVBL



USA.gov is the U.S. government's official web portal to all federal, state and local government web resources and services.